"Pseudo-MPEC" for A11ayl3

Created 2024 Sep 13 16:22:03 UT using Find_Orb

Click here for an explanation of pseudo-MPECs

 
 Astrometry: 
     A11ayl3* C2024 09 02.19759902 16 43.510+00 15 01.84   ~9327 12.45oVNEOCPW68
     A11ayl3  C2024 09 02.22980002 34 53.712+00 46 36.84   ~9327 12.67oVNEOCPW68
     A11ayl3  C2024 09 02.25706502 48 53.635+01 13 17.36   ~9327 12.94oVNEOCPW68
     A11ayl3  C2024 09 02.25886702 49 46.834+01 15 02.74   ~9327 12.94oVNEOCPW68
     A11ayl3  C2024 09 02.27333802 56 45.245+01 29 08.20   ~9327 12.93oVNEOCPW68
     A11ayl3  C2024 09 02.27559102 57 49.051+01 31 19.74   ~9327 12.96oVNEOCPW68
     A11ayl3  C2024 09 02.27919702 59 30.338+01 34 49.76   ~9327 12.98oVNEOCPW68
     A11ayl3  C2024 09 02.28550603 02 25.464+01 40 56.89   ~9327 13.03oVNEOCPW68
     A11ayl3  C2024 09 02.30795303 12 28.884+02 02 38.62   ~9327 13.01oVNEOCPW68
     A11ayl3  C2024 09 02.31110803 13 51.391+02 05 41.06   ~9327 13.13oVNEOCPW68
     A11ayl3  C2024 09 02.33082503 22 16.183+02 24 36.68   ~9327 13.28oVNEOCPW68

Station data:
(W68) ATLAS Chile, Rio Hurtado  (S30.471010 W70.764980)  Chile.  Observers L.
   Denneau, R. Siverd, J. Tonry, H. Weiland. Measurers L. Denneau, N.
   Erasmus, A. Fitzsimmons, A. Lawrence, J. Robinson, R. Siverd, J. Tonry, H.
   Weiland. 0.5-m reflector + CCD.

Orbital elements:  A11ayl3
   Perigee 2024 Sep 1.90183 +/- 0.00036 TT = 21:38:38 (JD 2460555.40183)
Epoch 2024 Sep  2.0 TT = JDT 2460555.5                           AutoNEOCP
M  30.93140998 +/- 0.10             (J2000 equator)
n 315.09208460 +/- 0.325            Peri.  192.81404 +/- 0.059
a 46164.8941 +/- 31.7               Node    52.91142 +/- 0.006
e   0.5246445 +/- 0.000412          Incl.    7.49900 +/- 0.0023
P1645.202m/1.143d          H 28.02  G  0.15   U 12.0
q 21944.7321 +/- 31.2    Q 70385.0561 +/- 38.3
From 11 observations 2024 Sept. 2 (3.2 hr); mean residual 1".30
Residuals in arcseconds: 
240902 W68  2.3-  .12-    240902 W68  .87-  .07-    240902 W68  .91-  .19-    
240902 W68  3.7+  .05+    240902 W68  .40-  .05+    240902 W68  1.1-  .04-    
240902 W68  1.7+  .29+    240902 W68  1.1-  .11-    240902 W68  2.4+  .22+    
240902 W68  .90+  .17+    240902 W68  2.0-  .25-    

Ephemerides (geocentric):
Date (UTC) HH   RA             Dec           delta  r     elong  mag " sig PA
---- --------  ------------   ------------  ------ ------ -----  --- --------
2024 09 13 16  02 28 59.048   -02 01 52.80   61943 1.0063 134.5 12.9  210  83
2024 09 13 17  02 52 29.346   -01 16 22.78   64781 1.0063 128.7 13.1  194  83
2024 09 13 18  03 14 12.152   -00 33 35.90   67022 1.0062 123.2 13.3  179  83
2024 09 13 19  03 34 40.673   +00 07 02.21   68687 1.0062 118.1 13.5  166  82
2024 09 13 20  03 54 20.612   +00 46 00.93   69789 1.0061 113.2 13.7  154  82
2024 09 13 21  04 13 33.240   +01 23 45.44   70338 1.0061 108.4 13.9  143  82
2024 09 13 22  04 32 37.487   +02 00 37.52   70339 1.0061 103.7 14.1  133  82
2024 09 13 23  04 51 51.563   +02 36 56.33   69791 1.0060  98.9 14.2  123  81
2024 09 14 00  05 11 34.448   +03 12 58.67   68690 1.0060  93.9 14.4  114  81
2024 09 14 01  05 32 07.507   +03 48 59.03   67027 1.0059  88.8 14.5  105  81
2024 09 14 02  05 53 56.595   +04 25 08.73   64787 1.0058  83.4 14.7 95.9  81
2024 09 14 03  06 17 35.114   +05 01 33.60   61951 1.0058  77.5 14.9 87.7  80
2024 09 14 04  06 43 48.937   +05 38 08.55   58495 1.0057  71.0 15.1 80.3  80
2024 09 14 05  07 13 44.905   +06 14 24.75   54393 1.0057  63.6 15.4 74.1  80
2024 09 14 06  07 49 06.540   +06 48 58.70   49618 1.0057  54.9 15?? 70.6  80
2024 09 14 07  08 32 44.989   +07 18 13.10   44163 1.0056  44.1 16?? 73.0  82
2024 09 14 08  09 29 43.236   +07 32 39.85   38077 1.0056  30.1 18?? 89.3  85
2024 09 14 09  10 49 27.296   +07 06 46.03   31597 1.0056  10.7 25??  141  89
2024 09 14 10  12 48 40.935   +04 55 36.25   25534 1.0056  19.8 20??  279  95
2024 09 14 11  15 41 54.417   -00 21 32.53   22038 1.0057  63.1 13.5  528  98
2024 09 14 12  18 51 37.864   -05 48 27.41   23570 1.0058 110.6 11.5  644  95
2024 09 14 13  21 14 17.398   -07 31 41.51   28910 1.0059 145.9 10.9  562  91
2024 09 14 14  22 48 18.230   -07 07 42.72   35372 1.0060 168.8 10.6  460  88
2024 09 14 15  23 53 06.280   -06 09 26.10   41673 1.0060 173.6 Sha   386  87
2024 09 14 16  00 41 14.682   -05 06 45.00   47406 1.0060 162.3 11.5  333  85
2024 09 14 17  01 19 21.691   -04 07 16.56   52467 1.0060 152.9 12.0  294  84
2024 09 14 18  01 51 04.559   -03 12 24.60   56850 1.0060 145.0 12.4  264  84
2024 09 14 19  02 18 30.228   -02 21 52.61   60574 1.0060 138.2 12.7  240  83
2024 09 14 20  02 42 58.184   -01 35 00.86   63667 1.0060 132.1 13.0  220  83
2024 09 14 21  03 05 21.489   -00 51 08.33   66154 1.0059 126.5 13.2  204  83
2024 09 14 22  03 26 17.788   -00 09 38.44   68057 1.0059 121.2 13.4  189  82
2024 09 14 23  03 46 15.468   +00 30 00.24   69391 1.0059 116.3 13.6  176  82
2024 09 15 00  04 05 37.360   +01 08 14.53   70170 1.0058 111.4 13.8  164  82
2024 09 15 01  04 24 43.162   +01 45 27.58   70398 1.0058 106.7 14.0  154  82
2024 09 15 02  04 43 51.213   +02 21 59.56   70079 1.0057 101.9 14.1  144  82
2024 09 15 03  05 03 19.997   +02 58 08.26   69209 1.0057  97.0 14.3  135  81
2024 09 15 04  05 23 29.681   +03 34 09.18   67781 1.0056  92.0 14.4  126  81
2024 09 15 05  05 44 43.962   +04 10 15.12   65783 1.0056  86.7 14.6  118  81
2024 09 15 06  06 07 32.654   +04 46 34.60   63198 1.0055  81.1 14.7  112  81
2024 09 15 07  06 32 35.693   +05 23 08.04   60003 1.0055  74.9 14.9  106  81
2024 09 15 08  07 00 49.851   +05 59 38.72   56172 1.0054  67.9 15.2  102  81
2024 09 15 09  07 33 40.817   +06 35 11.48   51680 1.0054  59.7 15??  102  82
2024 09 15 10  08 13 26.376   +07 07 19.49   46507 1.0053  49.9 16??  109  83
2024 09 15 11  09 04 03.615   +07 29 42.46   40670 1.0053  37.5 17??  129  85
2024 09 15 12  10 12 47.543   +07 25 26.76   34304 1.0053  20.6 20??  182  89
2024 09 15 13  11 53 07.461   +06 09 20.95   27905 1.0053   5.9 33??  311  93
2024 09 15 14  14 24 01.151   +02 11 17.80   22982 1.0054  42.5 15??  574  97
2024 09 15 15  17 36 02.971   -03 55 59.84   22310 1.0055  90.7 12.0  793  97